RH
20 23 22 20 18 16 14 14 16 15 14 18 22 20 17 15 16 19 19 19 22 21 19 20 23 24 24 27 28 28 28 19 30 43 45 40 34 35 34 33 30 30 29 29
20 28 19 16 16 18 20 21 21 19 18 18 21 22 18 17 20 24 24 23 22 20 19 19 21 23 24 26 29 29 32 32 29 34 44 43 36 33 34 35 32 30 31 31
22 20 17 16 20 20 20 22 23 26 23 20 22 23 19 23 24 21 19 18 17 17 17 18 19 21 21 25 28 29 31 32 32 31 41 42 38 34 35 36 34 32 32 34
21 17 18 22 21 19 27 22 24 27 30 33 21 38 25 24 26 22 21 21 20 18 17 19 21 22 21 21 26 28 29 30 32 32 36 43 44 41 39 38 37 36 35 36
20 20 23 26 21 22 26 25 28 31 33 33 30 37 22 24 30 27 26 22 16 18 22 24 23 23 23 24 26 26 26 29 32 35 33 36 42 47 42 40 40 40 39 37
22 18 19 23 24 24 22 28 26 25 28 44 28 31 24 25 29 21 15 12 11 15 22 24 23 24 25 25 26 28 28 31 31 34 36 34 36 42 49 45 43 43 42 40
26 20 23 24 25 26 30 34 40 34 51 50 23 26 23 27 18 14 14 13 13 13 21 24 24 26 27 28 28 29 30 33 34 35 37 36 32 36 47 49 44 44 46 44
34 31 25 19 25 32 30 31 41 43 34 42 27 31 28 18 14 14 15 15 15 15 22 26 26 26 26 26 27 29 30 32 32 35 39 38 34 32 37 51 48 43 46 45
33 29 20 17 24 24 27 31 23 39 33 39 30 20 22 16 16 17 17 16 17 17 24 26 25 24 24 24 25 27 30 28 29 33 40 43 41 36 34 37 50 46 42 44
24 29 14 21 18 18 25 20 28 28 34 32 18 20 20 23 21 20 18 16 14 16 22 23 22 22 23 23 24 29 27 25 25 28 40 45 47 41 35 34 46 49 46 43
23 23 19 17 17 19 22 21 20 23 25 34 46 35 20 22 23 22 19 15 16 23 26 25 23 23 23 24 25 26 25 26 26 29 40 46 48 48 39 34 35 46 46 44
24 31 27 19 16 19 20 19 20 49 46 46 56 48 21 21 21 19 18 14 19 25 28 27 25 23 23 25 27 27 27 26 27 33 40 46 51 54 48 36 34 35 41 43
33 27 40 27 32 26 27 28 30 30 49 57 65 51 23 22 21 18 17 19 23 25 27 26 25 24 25 26 27 28 28 30 35 34 38 47 54 59 54 41 38 35 36 41
37 36 32 46 39 33 37 32 29 32 55 48 46 39 28 24 23 20 20 23 28 28 27 26 28 28 26 27 28 29 30 35 36 38 38 48 56 60 60 58 40 39 36 38
40 47 37 34 34 36 37 37 35 37 36 46 40 36 28 22 19 20 20 27 31 32 30 29 34 32 29 30 31 33 34 36 36 34 37 46 56 63 62 65 57 42 38 36
34 54 49 56 41 37 38 34 33 32 31 31 26 27 20 20 19 22 32 32 34 33 38 34 32 32 32 32 33 33 34 35 36 33 33 42 54 65 61 70 73 58 45 36
45 55 63 71 39 43 56 33 28 27 25 27 36 32 27 38 45 42 41 38 34 41 37 34 33 32 31 31 32 34 34 33 35 35 35 38 52 56 57 60 74 80 71 39
46 50 56 73 58 77 35 26 26 32 30 30 32 39 56 55 50 43 38 37 36 38 35 33 31 32 32 33 34 35 35 35 36 38 38 40 53 54 54 54 71 72 78 49
37 48 71 81 68 50 39 30 35 36 39 35 46 48 46 42 47 47 38 41 47 43 37 32 31 32 33 34 36 38 38 38 39 40 40 52 57 55 55 54 60 62 82 78
32 39 57 57 81 88 36 33 27 38 59 37 40 44 49 55 81 63 48 51 53 50 40 35 35 34 35 36 39 40 41 41 40 41 55 59 59 60 61 56 49 52 73 89
40 52 66 66 72 60 35 30 30 54 54 37 36 45 57 73 71 59 54 58 53 44 37 37 37 36 36 38 40 43 44 44 42 43 55 61 65 65 64 54 44 53 74 89
57 69 67 60 69 70 27 32 44 38 36 37 54 62 68 65 62 56 57 58 53 52 48 44 40 39 38 40 42 44 46 47 47 46 55 64 67 65 63 44 42 58 75 93
59 40 66 56 62 33 29 33 32 33 49 56 61 58 59 61 60 61 61 55 51 53 53 48 44 41 40 43 44 48 49 49 49 48 54 67 74 69 59 42 44 60 82 89
32 29 48 50 40 35 33 30 31 38 52 56 56 57 60 70 63 59 56 55 52 48 53 47 42 43 46 48 49 51 52 52 52 53 60 75 80 72 55 54 52 74 83 87
42 40 45 46 40 38 35 35 52 60 57 58 57 58 56 57 58 53 50 47 44 44 45 46 47 49 50 53 54 59 59 59 58 57 72 86 79 66 67 58 71 82 84 80
47 47 53 57 35 43 51 51 53 57 59 57 56 53 47 45 48 47 49 48 47 48 49 52 52 52 53 50 57 56 60 64 63 66 87 88 83 75 75 80 70 81 86 81
Wind_Speed
3 3 6 9 7 8 8 11 13 13 13 12 9 16 20 19 12 9 7 16 19 19 20 33 36 41 41 45 42 41 40 18 19 28 29 26 28 30 29 31 30 31 34 33
5 7 5 6 5 5 8 13 14 12 10 13 11 18 22 23 6 20 20 20 19 20 20 26 31 35 36 36 39 41 39 39 37 17 31 31 32 31 31 31 31 33 35 37
5 9 3 4 6 11 11 12 10 13 15 14 10 7 2 15 22 21 20 17 19 19 19 17 24 30 32 32 35 37 38 37 36 36 19 29 27 28 29 32 36 37 37 37
8 5 2 7 10 10 9 9 11 12 11 4 10 6 9 10 17 17 12 11 14 16 15 16 23 28 32 29 27 29 31 33 35 39 32 21 29 26 30 35 38 37 37 36
5 8 6 7 8 10 6 9 13 15 13 11 10 4 6 17 14 12 11 14 13 13 15 18 24 26 26 30 26 27 30 26 29 33 38 32 26 30 31 32 35 35 37 37
12 9 4 2 9 8 9 11 17 17 8 5 9 10 4 4 13 10 11 12 14 11 11 12 19 23 24 28 25 24 28 28 29 30 29 36 32 27 28 29 31 33 36 38
11 1 6 7 9 2 9 11 4 2 2 5 14 6 4 16 15 16 13 14 16 15 10 12 13 21 23 26 30 25 24 27 31 30 28 30 36 33 30 34 32 31 31 34
6 2 4 5 3 6 12 5 4 5 4 8 19 4 6 17 17 13 14 11 9 10 7 9 12 20 25 27 29 30 26 26 29 33 29 27 32 34 31 33 33 33 34 34
6 2 6 8 4 4 8 4 4 5 9 10 6 6 19 15 17 16 19 15 12 12 8 9 13 18 20 25 26 31 27 27 29 33 33 28 31 34 32 30 36 34 35 37
4 7 8 6 3 6 5 3 2 3 5 5 4 7 4 23 21 24 21 16 17 15 15 17 24 27 28 32 27 24 23 27 30 32 30 29 33 35 36 32 33 36 34 34
5 3 2 12 3 8 5 6 7 5 6 4 5 6 7 16 18 23 22 16 13 8 9 11 16 20 25 31 28 23 29 30 26 27 27 27 32 35 36 32 28 34 35 33
5 4 5 8 9 7 4 7 8 1 5 4 3 17 19 13 21 18 18 14 9 9 9 11 16 21 22 22 28 29 30 32 30 20 23 28 30 31 35 31 28 26 32 34
7 2 5 4 4 4 2 3 3 8 4 15 11 12 15 22 22 20 19 9 10 12 13 14 18 18 15 22 27 30 30 29 29 28 26 23 25 26 30 31 29 29 29 32
2 4 6 5 10 14 15 13 14 14 10 16 17 26 21 22 25 20 11 11 11 12 15 17 14 14 19 23 25 29 27 27 29 32 31 21 20 21 29 34 28 32 29 31
3 6 9 11 14 16 18 19 18 17 18 18 24 25 24 18 19 15 14 13 14 18 21 18 12 14 24 24 22 25 29 30 29 32 28 27 24 18 25 31 30 31 32 26
2 4 9 12 16 16 18 18 19 19 20 21 20 22 18 14 16 16 13 14 15 18 16 19 18 21 25 25 23 26 30 30 32 32 32 30 28 18 17 28 33 23 36 31
5 3 5 4 7 17 14 4 6 13 16 13 16 18 15 14 16 17 17 18 18 14 20 16 18 22 25 29 30 29 32 34 28 32 33 35 26 22 20 22 25 28 33 29
7 6 3 7 12 4 4 14 14 17 18 16 18 16 12 13 15 17 19 16 16 15 16 18 21 25 31 34 29 31 32 30 27 29 33 36 21 21 25 23 23 27 33 31
11 6 4 3 5 17 19 5 14 18 16 11 9 11 17 19 16 18 16 13 17 20 20 23 28 33 34 34 32 29 34 28 27 32 34 24 26 29 27 25 23 25 28 33
8 10 7 5 5 6 3 18 11 7 15 6 16 21 20 18 14 15 20 20 20 28 27 25 30 33 32 33 30 31 28 29 28 32 24 27 29 32 32 29 26 28 28 31
4 5 10 10 10 10 10 7 13 8 13 21 22 16 17 15 11 19 20 23 28 28 28 32 32 30 34 32 30 28 31 25 26 32 29 29 29 36 37 32 27 25 26 26
3 3 3 5 8 12 2 17 13 18 19 20 14 13 16 19 20 20 19 19 20 24 33 37 31 31 36 31 29 28 26 31 32 29 28 29 33 36 36 31 27 24 20 22
4 7 3 5 6 13 18 18 17 18 12 13 17 19 18 20 21 20 20 22 22 30 34 36 32 30 40 29 27 25 31 32 34 28 29 29 33 35 36 32 24 20 24 23
7 5 7 10 7 12 17 21 15 15 14 17 18 19 19 22 23 26 23 23 22 31 30 33 30 29 31 28 28 25 30 32 33 32 29 30 31 34 34 28 20 25 23 25
9 10 9 13 17 19 13 13 13 17 17 19 19 20 23 25 26 25 23 23 23 30 32 31 29 28 32 30 30 28 30 31 34 31 28 26 26 27 21 16 18 22 26 21
9 10 7 10 11 9 13 13 15 17 18 21 24 23 22 22 24 25 22 26 31 30 33 31 32 33 31 34 29 32 33 35 29 28 23 21 23 22 17 17 8 13 23 25
Wind_Direction
136 299 267 8 14 336 311 293 290 294 301 305 320 309 301 296 287 283 312 42 57 52 38 32 27 20 20 21 13 10 13 315 228 207 206 217 212 212 214 215 218 214 210 212
247 236 57 346 315 298 290 285 286 286 340 343 305 293 286 279 43 74 65 55 41 34 30 25 22 20 16 14 10 4 359 355 349 280 209 210 216 217 220 218 220 221 214 214
290 311 67 335 316 300 297 297 314 319 323 292 301 271 82 62 79 72 62 58 47 33 23 20 20 17 9 10 6 356 349 346 346 340 278 214 221 220 214 217 220 221 217 213
275 84 356 315 306 322 312 355 336 313 315 295 6 289 300 112 88 77 77 66 54 35 24 20 14 7 360 353 358 353 344 339 337 337 338 296 217 214 212 216 219 220 217 212
280 344 5 309 320 344 279 330 297 279 270 285 262 244 278 132 103 88 58 49 39 39 31 16 5 358 351 349 349 345 335 330 331 330 327 325 308 235 225 218 218 219 216 213
258 271 280 2 316 268 294 297 297 272 248 257 292 195 298 94 91 65 40 29 25 31 36 21 359 350 346 335 336 341 330 331 326 319 320 317 314 290 231 226 214 214 212 212
309 43 90 27 332 316 356 340 305 304 150 220 45 353 110 98 75 42 23 19 14 3 20 12 359 349 347 345 335 333 333 328 324 317 314 315 311 301 263 229 220 208 206 209
338 217 166 67 41 323 297 262 287 301 324 321 331 233 131 104 51 42 25 6 358 359 15 8 2 352 341 335 334 330 331 326 328 323 316 317 312 303 280 247 232 214 206 211
341 268 358 10 32 344 9 347 346 295 276 270 227 242 134 49 29 21 359 355 353 350 4 357 347 343 333 333 325 319 324 334 331 326 327 325 322 312 303 278 237 231 219 212
40 296 295 121 313 252 228 72 11 304 279 273 290 315 273 5 2 352 346 341 342 350 357 354 349 337 341 327 325 324 325 321 323 319 322 330 323 314 304 293 251 229 233 219
335 234 295 333 276 351 322 301 291 260 243 267 320 255 49 2 354 339 331 337 329 346 342 338 325 329 332 320 313 337 331 318 315 311 323 325 323 318 310 299 286 234 232 236
45 314 289 273 312 27 320 295 277 226 280 330 273 273 311 336 333 316 308 316 330 339 342 330 323 317 316 322 339 328 326 315 312 308 319 319 317 314 313 304 297 275 246 235
10 261 304 148 118 182 37 14 297 248 260 261 264 267 327 313 308 303 304 323 341 347 338 323 308 315 318 336 334 320 315 313 325 314 308 302 309 317 316 312 305 288 271 231
177 261 253 267 293 306 298 300 293 287 280 287 267 288 299 300 294 295 332 334 343 341 331 319 312 312 335 329 320 314 316 318 314 315 304 292 309 319 316 310 310 303 273 237
233 269 276 284 300 302 293 289 282 274 276 271 288 279 283 293 316 320 320 342 342 334 318 313 326 318 321 317 318 321 317 313 313 309 304 303 301 311 315 308 311 304 284 272
212 275 311 289 280 276 289 286 284 276 274 273 288 294 305 310 307 315 342 334 327 316 328 323 327 321 319 315 319 316 308 308 308 304 306 299 296 294 322 304 308 300 295 264
287 280 321 261 319 311 287 282 343 312 303 313 311 313 322 339 349 335 330 324 313 326 307 315 318 310 312 315 315 310 308 302 296 301 302 304 297 300 301 297 301 301 292 269
254 278 287 289 308 253 248 325 329 324 316 311 307 323 348 324 314 313 310 304 304 313 316 315 308 311 310 308 309 310 303 305 300 303 301 296 302 312 309 296 280 288 277 279
216 241 280 273 281 284 276 278 334 308 307 308 310 321 314 311 315 302 305 313 315 311 309 301 313 309 306 305 308 314 304 300 309 299 295 308 314 309 306 288 272 275 273 279
209 207 224 266 281 271 279 324 327 338 296 341 331 317 316 322 306 299 311 305 301 298 295 309 305 304 303 303 305 301 307 305 297 303 310 309 309 310 300 289 280 262 259 260
226 236 236 249 255 263 271 6 337 304 296 317 308 302 312 301 290 300 301 299 295 290 309 307 304 299 301 304 304 304 301 300 307 302 305 303 304 304 296 290 271 251 242 249
222 245 240 254 262 268 13 328 320 299 308 304 325 324 307 298 296 297 298 298 303 305 305 301 297 299 300 300 298 296 301 305 304 298 302 298 298 303 294 288 267 236 226 237
246 214 214 219 242 290 309 300 304 301 319 326 318 312 302 300 299 302 301 297 294 293 295 295 289 299 296 297 293 299 300 306 298 303 303 297 296 302 296 292 254 221 208 216
273 283 275 300 257 289 299 293 298 317 318 321 312 302 310 304 302 298 297 299 294 294 292 290 300 297 294 299 304 298 306 306 308 301 304 296 299 299 298 288 230 197 197 206
262 295 260 266 281 283 288 313 344 332 321 310 305 304 302 301 301 302 303 305 304 303 301 302 299 298 295 302 301 308 309 313 302 301 300 291 295 297 305 288 180 187 194 203
242 246 246 272 304 310 321 333 331 314 315 311 308 312 314 310 308 309 304 304 303 299 299 297 296 291 291 296 295 307 303 299 297 302 288 286 292 293 295 303 189 170 183 210